| time (UTC) | temp F | wind direction | speed knots | gust knots | rain 1hr in | rain 24hr in | rain mn in | humidity % | barometer mb |
| 20260901064722 | 78 | 92 | 5.2 | 16.5 | 0.00 | 0.14 | 0.02 | 76 | 1016.9 |
| 20260901064222 | 78 | 117 | 7.8 | 16.5 | 0.00 | 0.14 | 0.02 | 75 | 1016.7 |
| 20260901063953 | 78 | 84 | 4.3 | 14.8 | 0.00 | 0.14 | 0.02 | 76 | 1016.8 |
| 20260901063221 | 78 | 111 | 7.8 | 14.8 | 0.00 | 0.14 | 0.02 | 77 | 1016.6 |
| 20260901062954 | 78 | 62 | 8.7 | 18.2 | 0.00 | 0.14 | 0.02 | 77 | 1016.7 |
| 20260901062222 | 78 | 110 | 4.3 | 18.2 | 0.00 | 0.14 | 0.02 | 77 | 1016.7 |
| 20260901061721 | 78 | 82 | 7.0 | 18.2 | 0.00 | 0.14 | 0.02 | 77 | 1016.5 |
| 20260901061222 | 79 | 72 | 10.4 | 18.2 | 0.00 | 0.14 | 0.02 | 76 | 1016.5 |
| 20260901060722 | 79 | 62 | 4.3 | 22.6 | 0.00 | 0.14 | 0.02 | 76 | 1016.9 |
| 20260901060223 | 79 | 127 | 7.0 | 22.6 | 0.00 | 0.14 | 0.02 | 76 | 1016.8 |
| 20260901055722 | 79 | 151 | 7.0 | 16.5 | 0.00 | 0.14 | 0.02 | 76 | 1016.6 |
| 20260901055222 | 79 | 100 | 6.1 | 17.4 | 0.00 | 0.14 | 0.02 | 76 | 1016.5 |
| 20260901054727 | 79 | 113 | 7.0 | 18.2 | 0.00 | 0.14 | 0.02 | 75 | 1016.5 |
| 20260901054722 | 79 | 85 | 11.3 | 14.8 | 0.00 | 0.14 | 0.02 | 75 | 1016.8 |
| 20260901053722 | 79 | 92 | 7.0 | 18.2 | 0.00 | 0.14 | 0.02 | 74 | 1016.4 |
| 20260901053453 | 79 | 98 | 7.0 | 16.5 | 0.00 | 0.14 | 0.02 | 74 | 1016.1 |
| 20260901052722 | 79 | 82 | 7.8 | 16.5 | 0.00 | 0.14 | 0.02 | 77 | 1016.3 |
| 20260901052221 | 79 | 126 | 9.6 | 16.5 | 0.00 | 0.14 | 0.02 | 77 | 1016.2 |
| 20260901051722 | 79 | 113 | 9.6 | 17.4 | 0.00 | 0.14 | 0.02 | 76 | 1016.1 |
| 20260901051223 | 79 | 86 | 7.0 | 18.2 | 0.00 | 0.14 | 0.02 | 76 | 1015.9 |
| 20260901050721 | 79 | 75 | 9.6 | 18.2 | 0.00 | 0.14 | 0.02 | 76 | 1016.2 |
| 20260901050222 | 79 | 87 | 7.0 | 20.9 | 0.00 | 0.15 | 0.02 | 77 | 1016.1 |
| 20260901045722 | 79 | 85 | 7.0 | 18.2 | 0.00 | 0.16 | 0.02 | 76 | 1016.1 |
| 20260901045222 | 79 | 120 | 7.0 | 18.2 | 0.00 | 0.16 | 0.02 | 76 | 1015.7 |
| 20260901044721 | 79 | 107 | 11.3 | 18.2 | 0.00 | 0.16 | 0.02 | 77 | 1015.8 |
| 20260901044222 | 79 | 82 | 8.7 | 20.0 | 0.00 | 0.16 | 0.02 | 77 | 1015.8 |
| 20260901043721 | 79 | 58 | 10.4 | 20.0 | 0.00 | 0.16 | 0.02 | 76 | 1015.8 |
| 20260901043221 | 79 | 86 | 9.6 | 16.5 | 0.00 | 0.16 | 0.02 | 77 | 1015.8 |
| 20260901042722 | 79 | 102 | 7.0 | 13.9 | 0.00 | 0.16 | 0.02 | 76 | 1015.7 |
| 20260901042221 | 79 | 100 | 9.6 | 14.8 | 0.00 | 0.16 | 0.02 | 75 | 1015.7 |
| 20260901041721 | 79 | 101 | 7.0 | 16.5 | 0.00 | 0.16 | 0.02 | 76 | 1015.9 |
| 20260901041222 | 79 | 64 | 9.6 | 18.2 | 0.00 | 0.16 | 0.02 | 76 | 1015.8 |
| 20260901040721 | 79 | 86 | 6.1 | 18.2 | 0.00 | 0.16 | 0.02 | 75 | 1015.7 |
| 20260901040221 | 79 | 94 | 4.3 | 16.5 | 0.00 | 0.16 | 0.02 | 74 | 1015.9 |
| 20260901035721 | 80 | 100 | 5.2 | 16.5 | 0.00 | 0.16 | 0.02 | 73 | 1015.6 |
| 20260901035454 | 80 | 72 | 5.2 | 16.5 | 0.00 | 0.16 | 0.02 | 73 | 1015.6 |
| 20260901034721 | 80 | 74 | 7.8 | 16.5 | 0.00 | 0.16 | 0.02 | 75 | 1015.5 |
| 20260901034221 | 80 | 101 | 8.7 | 16.5 | 0.00 | 0.17 | 0.02 | 75 | 1015.5 |
| 20260901033722 | 80 | 133 | 5.2 | 16.5 | 0.00 | 0.17 | 0.02 | 74 | 1015.6 |
| 20260901033222 | 80 | 123 | 4.3 | 16.5 | 0.00 | 0.17 | 0.02 | 74 | 1015.5 |
| 20260901032954 | 80 | 73 | 10.4 | 16.5 | 0.00 | 0.17 | 0.02 | 74 | 1015.4 |
| 20260901032224 | 81 | 61 | 6.1 | 16.5 | 0.00 | 0.17 | 0.02 | 73 | 1015.5 |
| 20260901031722 | 81 | 72 | 7.0 | 14.8 | 0.00 | 0.17 | 0.02 | 73 | 1015.5 |
| 20260901031453 | 81 | 101 | 7.0 | 14.8 | 0.00 | 0.17 | 0.02 | 72 | 1015.2 |
| 20260901030721 | 81 | 113 | 10.4 | 17.4 | 0.00 | 0.17 | 0.02 | 73 | 1015.5 |
| 20260901030221 | 80 | 111 | 10.4 | 14.8 | 0.00 | 0.17 | 0.02 | 72 | 1015.4 |
| 20260901025723 | 81 | 116 | 5.2 | 13.9 | 0.00 | 0.17 | 0.02 | 73 | 1015.4 |
| 20260901025222 | 81 | 73 | 5.2 | 16.5 | 0.00 | 0.17 | 0.02 | 73 | 1015.3 |
| 20260901024728 | 82 | 73 | 3.5 | 14.8 | 0.00 | 0.17 | 0.02 | 73 | 1015.1 |
| 20260901024722 | 82 | 126 | 2.6 | 16.5 | 0.00 | 0.17 | 0.02 | 74 | 1015.0 |
| 20260901023959 | 82 | 103 | 7.0 | 14.8 | 0.00 | 0.17 | 0.02 | 70 | 1015.5 |
| 20260901023722 | 82 | 108 | 4.3 | 14.8 | 0.00 | 0.17 | 0.02 | 71 | 1015.4 |
| 20260901022721 | 82 | 89 | 7.8 | 14.8 | 0.00 | 0.17 | 0.02 | 71 | 1015.4 |
| 20260901022222 | 82 | 82 | 5.2 | 14.8 | 0.00 | 0.17 | 0.02 | 72 | 1015.5 |
| 20260901021723 | 82 | 117 | 5.2 | 17.4 | 0.00 | 0.17 | 0.02 | 71 | 1015.3 |
| 20260901021221 | 82 | 50 | 6.1 | 18.2 | 0.00 | 0.17 | 0.02 | 71 | 1015.2 |
| 20260901020721 | 82 | 66 | 7.8 | 18.2 | 0.00 | 0.17 | 0.02 | 72 | 1015.5 |
| 20260901020453 | 82 | 59 | 7.8 | 17.4 | 0.00 | 0.17 | 0.02 | 71 | 1015.1 |
| 20260901015721 | 82 | 110 | 9.6 | 20.0 | 0.00 | 0.17 | 0.02 | 72 | 1015.1 |
| 20260901015221 | 82 | 74 | 7.0 | 20.0 | 0.00 | 0.17 | 0.02 | 72 | 1015.4 |
| 20260901014721 | 83 | 92 | 10.4 | 17.4 | 0.00 | 0.17 | 0.02 | 71 | 1015.0 |
| 20260901014231 | 83 | 57 | 5.2 | 16.5 | 0.00 | 0.17 | 0.02 | 71 | 1015.3 |
| 20260901014222 | 83 | 78 | 9.6 | 17.4 | 0.00 | 0.17 | 0.02 | 69 | 1015.3 |
| 20260901013221 | 83 | 84 | 8.7 | 17.4 | 0.00 | 0.17 | 0.02 | 71 | 1015.2 |
| 20260901012718 | 83 | 75 | 10.4 | 17.4 | 0.00 | 0.17 | 0.02 | 71 | 1015.4 |
| 20260901012219 | 82 | 74 | 5.2 | 13.0 | 0.00 | 0.17 | 0.02 | 72 | 1015.4 |
| 20260901011716 | 83 | 110 | 5.2 | 14.8 | 0.00 | 0.17 | 0.02 | 73 | 1015.4 |
| 20260901011216 | 83 | 100 | 5.2 | 18.2 | 0.00 | 0.17 | 0.02 | 73 | 1015.5 |
| 20260901010716 | 82 | 80 | 5.2 | 18.2 | 0.00 | 0.17 | 0.02 | 74 | 1015.3 |
| 20260901010215 | 82 | 62 | 10.4 | 20.0 | 0.00 | 0.17 | 0.02 | 72 | 1015.5 |
| 20260901005721 | 83 | 74 | 13.0 | 17.4 | 0.00 | 0.17 | 0.02 | 71 | 1015.6 |
| 20260901005715 | 82 | 88 | 7.8 | 20.0 | 0.00 | 0.17 | 0.02 | 72 | 1015.7 |
| 20260901004715 | 83 | 35 | 8.7 | 17.4 | 0.00 | 0.17 | 0.02 | 73 | 1015.6 |
| 20260901004446 | 83 | 67 | 7.8 | 16.5 | 0.00 | 0.17 | 0.02 | 72 | 1015.7 |
| 20260901003716 | 83 | 128 | 7.0 | 17.4 | 0.00 | 0.17 | 0.02 | 74 | 1015.4 |
| 20260901003222 | 83 | 42 | 5.2 | 17.4 | 0.00 | 0.17 | 0.02 | 72 | 1015.4 |
| 20260901003216 | 83 | 92 | 9.6 | 17.4 | 0.00 | 0.17 | 0.02 | 72 | 1015.3 |
| 20260901002447 | 83 | 81 | 10.4 | 20.0 | 0.00 | 0.17 | 0.02 | 71 | 1015.5 |
| 20260901001716 | 83 | 65 | 11.3 | 20.0 | 0.00 | 0.17 | 0.02 | 70 | 1015.6 |
| 20260901001217 | 83 | 64 | 7.0 | 20.0 | 0.00 | 0.17 | 0.02 | 71 | 1015.7 |
| 20260901000716 | 83 | 50 | 10.4 | 20.9 | 0.00 | 0.17 | 0.02 | 71 | 1015.9 |
| 20260901000215 | 83 | 64 | 12.2 | 20.9 | 0.00 | 0.17 | 0.02 | 71 | 1015.8 |
| 20260831235715 | 83 | 84 | 7.0 | 20.9 | 0.00 | 0.17 | 0.02 | 72 | 1015.9 |
| 20260831235215 | 83 | 59 | 9.6 | 17.4 | 0.00 | 0.17 | 0.02 | 71 | 1015.8 |
| 20260831234715 | 83 | 77 | 7.8 | 18.2 | 0.00 | 0.17 | 0.02 | 70 | 1016.1 |
| 20260831234216 | 83 | 50 | 11.3 | 18.2 | 0.00 | 0.17 | 0.02 | 71 | 1016.1 |
| 20260831233715 | 83 | 68 | 8.7 | 16.5 | 0.00 | 0.17 | 0.02 | 71 | 1016.2 |
| 20260831233216 | 83 | 75 | 13.0 | 17.4 | 0.00 | 0.17 | 0.02 | 70 | 1016.1 |
| 20260831232716 | 83 | 56 | 9.6 | 18.2 | 0.00 | 0.17 | 0.02 | 70 | 1016.3 |
| 20260831232216 | 83 | 41 | 10.4 | 18.2 | 0.00 | 0.17 | 0.02 | 70 | 1016.3 |
| 20260831231716 | 83 | 101 | 0.0 | 17.4 | 0.00 | 0.17 | 0.02 | 71 | 1016.4 |
| 20260831231216 | 83 | 90 | 12.2 | 18.2 | 0.00 | 0.17 | 0.02 | 71 | 1016.6 |
| 20260831230717 | 83 | 89 | 9.6 | 18.2 | 0.00 | 0.17 | 0.02 | 74 | 1016.7 |
| 20260831230215 | 83 | 98 | 6.1 | 20.0 | 0.00 | 0.17 | 0.02 | 71 | 1017.0 |
| 20260831225715 | 84 | 115 | 5.2 | 20.0 | 0.00 | 0.17 | 0.02 | 69 | 1016.8 |
| 20260831225215 | 83 | 90 | 5.2 | 16.5 | 0.00 | 0.17 | 0.02 | 70 | 1016.7 |
| 20260831224716 | 84 | 105 | 10.4 | 16.5 | 0.00 | 0.17 | 0.02 | 70 | 1016.9 |
| 20260831224215 | 84 | 75 | 9.6 | 20.0 | 0.00 | 0.17 | 0.02 | 71 | 1016.8 |
| 20260831223946 | 84 | 97 | 10.4 | 20.0 | 0.00 | 0.17 | 0.02 | 71 | 1017.1 |
| 20260831223215 | 84 | 114 | 7.0 | 14.8 | 0.00 | 0.17 | 0.02 | 70 | 1017.2 |
| 20260831222947 | 83 | 113 | 6.1 | 14.8 | 0.00 | 0.17 | 0.02 | 72 | 1017.1 |
| 20260831222215 | 84 | 110 | 7.0 | 17.4 | 0.00 | 0.17 | 0.02 | 70 | 1017.4 |
| 20260831221715 | 83 | 98 | 6.1 | 17.4 | 0.00 | 0.17 | 0.02 | 70 | 1017.2 |
| 20260831221215 | 84 | 73 | 8.7 | 14.8 | 0.00 | 0.17 | 0.02 | 71 | 1017.3 |
| 20260831220946 | 84 | 64 | 6.1 | 14.8 | 0.00 | 0.17 | 0.02 | 71 | 1017.3 |
| 20260831220215 | 84 | 88 | 8.7 | 16.5 | 0.00 | 0.17 | 0.02 | 71 | 1017.4 |
| 20260831215716 | 84 | 78 | 9.6 | 17.4 | 0.00 | 0.17 | 0.02 | 70 | 1017.3 |
| 20260831215216 | 83 | 82 | 5.2 | 17.4 | 0.00 | 0.17 | 0.02 | 71 | 1017.3 |
| 20260831214715 | 83 | 99 | 7.0 | 14.8 | 0.00 | 0.17 | 0.02 | 71 | 1017.5 |
| 20260831214216 | 83 | 87 | 5.2 | 14.8 | 0.00 | 0.17 | 0.02 | 71 | 1017.4 |
| 20260831213716 | 83 | 94 | 4.3 | 14.8 | 0.00 | 0.17 | 0.02 | 72 | 1017.6 |
| 20260831213216 | 83 | 69 | 5.2 | 17.4 | 0.00 | 0.17 | 0.02 | 71 | 1017.5 |
| 20260831212716 | 84 | 144 | 1.7 | 17.4 | 0.00 | 0.17 | 0.02 | 71 | 1017.7 |
| 20260831212447 | 83 | 132 | 7.0 | 17.4 | 0.00 | 0.17 | 0.02 | 71 | 1017.6 |
| 20260831211715 | 83 | 70 | 4.3 | 17.4 | 0.00 | 0.17 | 0.02 | 73 | 1017.8 |
| 20260831211215 | 83 | 102 | 5.2 | 18.2 | 0.00 | 0.17 | 0.02 | 72 | 1017.7 |
| 20260831210715 | 83 | 123 | 0.9 | 18.2 | 0.00 | 0.17 | 0.02 | 71 | 1017.8 |
| 20260831210215 | 83 | 91 | 8.7 | 16.5 | 0.00 | 0.17 | 0.02 | 71 | 1017.6 |
| 20260831205715 | 83 | 82 | 9.6 | 16.5 | 0.00 | 0.17 | 0.02 | 72 | 1017.5 |
| 20260831205447 | 83 | 91 | 9.6 | 16.5 | 0.00 | 0.17 | 0.02 | 72 | 1017.7 |
| 20260831204703 | 83 | 116 | 10.4 | 16.5 | 0.00 | 0.17 | 0.02 | 70 | 1017.5 |
| 20260831204203 | 82 | 105 | 10.4 | 14.8 | 0.00 | 0.17 | 0.02 | 71 | 1017.8 |
| 20260831203703 | 82 | 59 | 7.8 | 18.2 | 0.00 | 0.17 | 0.02 | 73 | 1017.8 |
| 20260831203204 | 82 | 128 | 8.7 | 18.2 | 0.00 | 0.17 | 0.02 | 71 | 1017.8 |
| 20260831202703 | 82 | 66 | 12.2 | 20.9 | 0.00 | 0.17 | 0.02 | 71 | 1017.9 |
| 20260831202203 | 82 | 100 | 5.2 | 20.9 | 0.00 | 0.17 | 0.02 | 74 | 1017.7 |
| 20260831201703 | 82 | 64 | 7.8 | 16.5 | 0.00 | 0.17 | 0.02 | 73 | 1017.7 |
| 20260831201204 | 82 | 118 | 7.8 | 20.9 | 0.00 | 0.17 | 0.02 | 73 | 1017.7 |
| 20260831200935 | 82 | 93 | 12.2 | 20.9 | 0.00 | 0.17 | 0.02 | 71 | 1017.5 |
| 20260831200436 | 82 | 120 | 11.3 | 20.0 | 0.00 | 0.17 | 0.02 | 72 | 1017.7 |
| 20260831195704 | 82 | 67 | 5.2 | 17.4 | 0.00 | 0.17 | 0.02 | 73 | 1017.5 |
| 20260831195204 | 82 | 83 | 9.6 | 18.2 | 0.00 | 0.17 | 0.02 | 72 | 1017.6 |
| 20260831194934 | 82 | 90 | 4.3 | 20.9 | 0.00 | 0.17 | 0.02 | 72 | 1017.6 |
| 20260831194204 | 81 | 76 | 13.0 | 18.2 | 0.00 | 0.17 | 0.02 | 73 | 1017.6 |
| 20260831193703 | 82 | 61 | 7.8 | 14.8 | 0.00 | 0.17 | 0.02 | 73 | 1017.4 |
| 20260831193205 | 82 | 94 | 6.1 | 16.5 | 0.00 | 0.17 | 0.02 | 75 | 1017.7 |
| 20260831192703 | 82 | 92 | 9.6 | 18.2 | 0.00 | 0.17 | 0.02 | 74 | 1017.7 |
| 20260831192203 | 81 | 138 | 7.0 | 18.2 | 0.00 | 0.17 | 0.02 | 74 | 1017.6 |
| 20260831191704 | 81 | 64 | 9.6 | 20.0 | 0.00 | 0.17 | 0.02 | 74 | 1017.5 |
| 20260831191204 | 81 | 76 | 3.5 | 20.0 | 0.00 | 0.17 | 0.02 | 75 | 1017.6 |
| 20260831190704 | 81 | 93 | 0.0 | 17.4 | 0.00 | 0.17 | 0.02 | 75 | 1017.8 |
| 20260831190203 | 81 | 101 | 4.3 | 17.4 | 0.00 | 0.17 | 0.02 | 76 | 1017.6 |
| 20260831185703 | 81 | 76 | 8.7 | 16.5 | 0.00 | 0.17 | 0.02 | 76 | 1017.5 |
| 20260831185203 | 81 | 90 | 7.0 | 16.5 | 0.00 | 0.17 | 0.02 | 75 | 1017.6 |
| 20260831184704 | 81 | 77 | 9.6 | 20.9 | 0.00 | 0.17 | 0.02 | 75 | 1017.6 |
| 20260831184204 | 80 | 72 | 4.3 | 20.9 | 0.00 | 0.17 | 0.02 | 75 | 1017.3 |
| 20260831183703 | 80 | 105 | 7.0 | 17.4 | 0.00 | 0.17 | 0.02 | 74 | 1017.5 |
| 20260831183311 | 80 | 96 | 7.0 | 20.0 | 0.00 | 0.17 | 0.02 | 75 | 1017.2 |
| 20260831183203 | 80 | 135 | 5.2 | 16.5 | 0.00 | 0.17 | 0.02 | 75 | 1017.5 |
| 20260831182935 | 80 | 88 | 9.6 | 17.4 | 0.00 | 0.17 | 0.02 | 74 | 1017.3 |
| 20260831181709 | 80 | 109 | 0.0 | 14.8 | 0.00 | 0.17 | 0.02 | 77 | 1017.1 |
| 20260831181703 | 80 | 55 | 9.6 | 20.0 | 0.00 | 0.17 | 0.02 | 75 | 1017.4 |
| 20260831180703 | 80 | 93 | 7.0 | 14.8 | 0.00 | 0.17 | 0.02 | 76 | 1017.4 |
| 20260831180203 | 80 | 61 | 0.0 | 14.8 | 0.00 | 0.17 | 0.02 | 76 | 1017.1 |
| 20260831175703 | 80 | 103 | 7.0 | 14.8 | 0.00 | 0.17 | 0.02 | 75 | 1017.2 |
| 20260831175203 | 79 | 46 | 5.2 | 16.5 | 0.00 | 0.17 | 0.02 | 76 | 1017.2 |
| 20260831174935 | 79 | 110 | 0.9 | 16.5 | 0.00 | 0.17 | 0.02 | 77 | 1017.2 |
| 20260831174204 | 79 | 52 | 7.8 | 16.5 | 0.00 | 0.17 | 0.02 | 77 | 1017.2 |
| 20260831173704 | 79 | 103 | 6.1 | 16.5 | 0.00 | 0.17 | 0.02 | 78 | 1017.1 |
| 20260831173153 | 79 | 101 | 12.2 | 16.5 | 0.00 | 0.17 | 0.02 | 78 | 1016.9 |
| 20260831172652 | 79 | 84 | 5.2 | 14.8 | 0.00 | 0.17 | 0.02 | 77 | 1016.9 |
| 20260831172152 | 79 | 92 | 0.0 | 18.2 | 0.00 | 0.17 | 0.02 | 77 | 1016.7 |
| 20260831171651 | 79 | 67 | 4.3 | 18.2 | 0.00 | 0.17 | 0.02 | 76 | 1017.0 |
| 20260831171152 | 79 | 96 | 7.0 | 18.2 | 0.00 | 0.17 | 0.02 | 77 | 1016.7 |
| 20260831170652 | 78 | 89 | 9.6 | 18.2 | 0.00 | 0.17 | 0.02 | 76 | 1016.5 |
| 20260831170424 | 78 | 123 | 8.7 | 16.5 | 0.00 | 0.17 | 0.02 | 76 | 1016.6 |
| 20260831165651 | 79 | 89 | 9.6 | 16.5 | 0.00 | 0.17 | 0.02 | 76 | 1016.6 |
| 20260831165139 | 79 | 88 | 7.8 | 18.2 | 0.00 | 0.17 | 0.02 | 77 | 1016.5 |
| 20260831164639 | 78 | 138 | 7.8 | 20.0 | 0.00 | 0.17 | 0.02 | 77 | 1016.6 |
| 20260831164140 | 78 | 75 | 9.6 | 20.0 | 0.00 | 0.17 | 0.02 | 78 | 1016.6 |
| 20260831163640 | 78 | 34 | 7.8 | 16.5 | 0.00 | 0.17 | 0.02 | 77 | 1016.5 |
| 20260831163140 | 78 | 107 | 7.0 | 16.5 | 0.00 | 0.17 | 0.02 | 78 | 1016.4 |
| 20260831162640 | 78 | 105 | 7.0 | 18.2 | 0.00 | 0.17 | 0.02 | 77 | 1016.5 |
| 20260831162359 | 78 | 122 | 7.8 | 18.2 | 0.00 | 0.17 | 0.02 | 77 | 1016.4 |
| 20260831161627 | 78 | 76 | 11.3 | 14.8 | 0.00 | 0.17 | 0.02 | 78 | 1016.4 |
| 20260831161116 | 78 | 66 | 7.0 | 20.9 | 0.00 | 0.17 | 0.02 | 78 | 1015.9 |
| 20260831160615 | 78 | 72 | 9.6 | 20.9 | 0.00 | 0.17 | 0.02 | 78 | 1016.3 |
| 20260831160117 | 78 | 114 | 5.2 | 20.9 | 0.00 | 0.17 | 0.02 | 76 | 1016.1 |
| 20260831155615 | 78 | 125 | 7.0 | 18.2 | 0.00 | 0.17 | 0.02 | 77 | 1016.1 |
| 20260831155115 | 78 | 83 | 8.7 | 20.9 | 0.00 | 0.17 | 0.02 | 78 | 1016.1 |
| 20260831154616 | 77 | 107 | 4.3 | 20.9 | 0.00 | 0.17 | 0.02 | 78 | 1016.0 |
| 20260831154123 | 77 | 63 | 7.0 | 17.4 | 0.00 | 0.17 | 0.02 | 79 | 1016.3 |
| 20260831154117 | 77 | 99 | 7.8 | 14.8 | 0.00 | 0.17 | 0.02 | 77 | 1016.1 |
| 20260831153115 | 77 | 86 | 6.1 | 17.4 | 0.00 | 0.17 | 0.02 | 78 | 1016.1 |
| 20260831152615 | 77 | 142 | 7.0 | 17.4 | 0.00 | 0.17 | 0.02 | 78 | 1016.4 |
| 20260831152116 | 77 | 89 | 7.8 | 20.0 | 0.00 | 0.17 | 0.02 | 78 | 1016.4 |
| 20260831151615 | 78 | 146 | 4.3 | 20.0 | 0.00 | 0.17 | 0.02 | 79 | 1016.2 |
| 20260831151353 | 77 | 125 | 7.0 | 18.2 | 0.00 | 0.17 | 0.02 | 78 | 1016.1 |
| 20260831151115 | 78 | 97 | 9.6 | 18.2 | 0.00 | 0.17 | 0.02 | 78 | 1016.1 |
| 20260831150115 | 77 | 85 | 11.3 | 18.2 | 0.00 | 0.17 | 0.02 | 78 | 1016.2 |
| 20260831145615 | 77 | 72 | 8.7 | 20.9 | 0.00 | 0.17 | 0.02 | 79 | 1016.1 |
| 20260831145115 | 77 | 85 | 7.8 | 20.9 | 0.00 | 0.17 | 0.02 | 79 | 1015.9 |
| 20260831144616 | 77 | 91 | 7.8 | 18.2 | 0.00 | 0.17 | 0.02 | 79 | 1015.8 |
| 20260831144116 | 77 | 80 | 9.6 | 18.2 | 0.00 | 0.17 | 0.02 | 80 | 1015.9 |
| 20260831143846 | 77 | 112 | 9.6 | 16.5 | 0.00 | 0.17 | 0.02 | 80 | 1016.0 |
| 20260831143116 | 77 | 28 | 6.1 | 16.5 | 0.00 | 0.17 | 0.02 | 80 | 1015.7 |
| 20260831142617 | 77 | 138 | 5.2 | 14.8 | 0.00 | 0.17 | 0.02 | 79 | 1015.8 |
| 20260831142115 | 77 | 76 | 8.7 | 16.5 | 0.00 | 0.17 | 0.02 | 78 | 1015.9 |
| 20260831141616 | 77 | 91 | 3.5 | 18.2 | 0.00 | 0.17 | 0.02 | 78 | 1015.8 |
| 20260831141116 | 77 | 110 | 12.2 | 18.2 | 0.00 | 0.17 | 0.02 | 78 | 1015.7 |
| 20260831140616 | 77 | 73 | 9.6 | 18.2 | 0.00 | 0.17 | 0.02 | 79 | 1015.6 |
| 20260831140116 | 78 | 101 | 7.8 | 21.7 | 0.00 | 0.17 | 0.02 | 80 | 1015.7 |
| 20260831135616 | 77 | 66 | 7.8 | 21.7 | 0.00 | 0.17 | 0.02 | 80 | 1015.6 |
| 20260831135115 | 78 | 53 | 10.4 | 18.2 | 0.00 | 0.17 | 0.02 | 80 | 1015.8 |
| 20260831134616 | 78 | 80 | 8.7 | 18.2 | 0.00 | 0.17 | 0.02 | 81 | 1015.8 |
| 20260831134347 | 78 | 84 | 13.9 | 17.4 | 0.00 | 0.17 | 0.02 | 82 | 1015.8 |
| 20260831133617 | 78 | 117 | 7.0 | 17.4 | 0.00 | 0.17 | 0.02 | 83 | 1015.9 |
| 20260831133116 | 78 | 71 | 10.4 | 18.2 | 0.00 | 0.17 | 0.02 | 82 | 1015.9 |
| 20260831132616 | 78 | 88 | 7.8 | 18.2 | 0.00 | 0.17 | 0.02 | 82 | 1015.7 |
| 20260831132115 | 78 | 28 | 11.3 | 18.2 | 0.00 | 0.17 | 0.02 | 81 | 1015.9 |
| 20260831131846 | 78 | 85 | 10.4 | 18.2 | 0.00 | 0.17 | 0.02 | 82 | 1015.8 |
| 20260831131115 | 78 | 110 | 10.4 | 18.2 | 0.00 | 0.17 | 0.02 | 83 | 1015.8 |
| 20260831130847 | 78 | 61 | 9.6 | 18.2 | 0.00 | 0.17 | 0.02 | 83 | 1015.8 |
| 20260831130347 | 77 | 93 | 10.4 | 16.5 | 0.00 | 0.17 | 0.02 | 83 | 1016.0 |
| 20260831125615 | 77 | 105 | 7.0 | 16.5 | 0.00 | 0.17 | 0.02 | 84 | 1016.0 |
| 20260831125116 | 77 | 123 | 7.8 | 11.3 | 0.00 | 0.17 | 0.02 | 86 | 1016.1 |
| 20260831124616 | 77 | 111 | 3.5 | 12.2 | 0.00 | 0.17 | 0.02 | 86 | 1016.2 |
| 20260831124116 | 77 | 100 | 5.2 | 12.2 | 0.00 | 0.17 | 0.02 | 86 | 1016.4 |
| 20260831123616 | 76 | 124 | 3.5 | 12.2 | 0.00 | 0.17 | 0.02 | 86 | 1016.3 |
| 20260831123116 | 76 | 135 | 5.2 | 13.0 | 0.00 | 0.17 | 0.02 | 85 | 1016.3 |
| 20260831122616 | 76 | 100 | 4.3 | 13.0 | 0.00 | 0.17 | 0.02 | 85 | 1016.6 |
| 20260831122116 | 76 | 127 | 4.3 | 13.0 | 0.00 | 0.17 | 0.02 | 85 | 1016.4 |
| 20260831121618 | 76 | 106 | 5.2 | 13.0 | 0.00 | 0.17 | 0.02 | 85 | 1016.6 |
| 20260831121346 | 76 | 137 | 4.3 | 13.9 | 0.00 | 0.17 | 0.02 | 85 | 1016.7 |
| 20260831120847 | 76 | 124 | 7.0 | 13.9 | 0.00 | 0.17 | 0.02 | 85 | 1016.8 |
| 20260831120116 | 76 | 102 | 5.2 | 14.8 | 0.00 | 0.17 | 0.02 | 85 | 1016.6 |
| 20260831115848 | 76 | 111 | 7.0 | 14.8 | 0.00 | 0.17 | 0.02 | 85 | 1016.8 |
| 20260831115348 | 76 | 69 | 4.3 | 13.9 | 0.00 | 0.17 | 0.02 | 85 | 1016.9 |
| 20260831114616 | 76 | 97 | 7.8 | 14.8 | 0.00 | 0.17 | 0.02 | 85 | 1016.9 |
| 20260831114116 | 77 | 76 | 4.3 | 14.8 | 0.00 | 0.17 | 0.02 | 86 | 1017.0 |
| 20260831113616 | 77 | 108 | 4.3 | 14.8 | 0.00 | 0.17 | 0.02 | 85 | 1016.8 |
| 20260831113346 | 77 | 110 | 4.3 | 13.9 | 0.00 | 0.17 | 0.02 | 85 | 1016.9 |
| 20260831112615 | 76 | 87 | 9.6 | 13.9 | 0.00 | 0.17 | 0.02 | 85 | 1017.0 |
| 20260831112115 | 76 | 87 | 8.7 | 17.4 | 0.00 | 0.17 | 0.02 | 85 | 1017.0 |
| 20260831111615 | 76 | 90 | 9.6 | 17.4 | 0.00 | 0.17 | 0.02 | 85 | 1017.1 |
| 20260831111116 | 76 | 113 | 7.0 | 13.0 | 0.01 | 0.17 | 0.02 | 86 | 1017.1 |
| 20260831110615 | 76 | 90 | 3.5 | 13.0 | 0.01 | 0.17 | 0.02 | 86 | 1017.1 |
| 20260831110116 | 76 | 80 | 7.0 | 17.4 | 0.02 | 0.17 | 0.02 | 86 | 1017.1 |
| 20260831105616 | 76 | 87 | 7.0 | 18.2 | 0.02 | 0.17 | 0.02 | 87 | 1017.5 |
| 20260831105115 | 75 | 109 | 10.4 | 18.2 | 0.02 | 0.17 | 0.02 | 87 | 1017.2 |
| 20260831104615 | 75 | 120 | 9.6 | 18.2 | 0.02 | 0.17 | 0.02 | 88 | 1017.4 |
| 20260831104115 | 74 | 114 | 6.1 | 14.8 | 0.02 | 0.17 | 0.02 | 89 | 1017.6 |
| 20260831103846 | 74 | 96 | 7.8 | 13.0 | 0.02 | 0.17 | 0.02 | 90 | 1017.6 |
| 20260831103118 | 73 | 137 | 5.2 | 13.9 | 0.02 | 0.17 | 0.02 | 90 | 1017.7 |
| 20260831102616 | 74 | 104 | 7.8 | 14.8 | 0.02 | 0.17 | 0.02 | 90 | 1017.9 |
| 20260831102115 | 74 | 157 | 7.0 | 18.2 | 0.02 | 0.17 | 0.01 | 90 | 1018.1 |
| 20260831101615 | 74 | 97 | 7.0 | 24.3 | 0.02 | 0.17 | 0.01 | 90 | 1018.1 |
| 20260831101115 | 75 | 85 | 10.4 | 24.3 | 0.01 | 0.17 | 0.01 | 90 | 1017.9 |
| 20260831100615 | 75 | 137 | 11.3 | 24.3 | 0.01 | 0.16 | 0.00 | 90 | 1017.8 |
| 20260831100115 | 75 | 142 | 11.3 | 24.3 | 0.03 | 0.16 | 0.00 | 89 | 1017.9 |
| 20260831095615 | 75 | 150 | 0.0 | 7.8 | 0.03 | 0.16 | 0.16 | 90 | 1017.6 |
| 20260831095115 | 74 | 115 | 1.7 | 8.7 | 0.03 | 0.16 | 0.16 | 90 | 1017.7 |
| 20260831094616 | 74 | 133 | 3.5 | 8.7 | 0.03 | 0.16 | 0.16 | 90 | 1018.0 |
| 20260831094116 | 74 | 140 | 0.0 | 7.8 | 0.03 | 0.16 | 0.16 | 90 | 1017.9 |
| 20260831093616 | 74 | 122 | 4.3 | 9.6 | 0.03 | 0.16 | 0.16 | 90 | 1017.8 |
| 20260831093116 | 74 | 131 | 0.0 | 9.6 | 0.03 | 0.16 | 0.16 | 90 | 1018.1 |
| 20260831092616 | 73 | 140 | 0.0 | 11.3 | 0.03 | 0.15 | 0.15 | 90 | 1018.3 |
| 20260831092347 | 73 | 120 | 2.6 | 12.2 | 0.03 | 0.15 | 0.15 | 90 | 1018.4 |
| 20260831091616 | 73 | 143 | 3.5 | 14.8 | 0.03 | 0.15 | 0.15 | 89 | 1018.5 |
| 20260831091347 | 73 | 58 | 12.2 | 17.4 | 0.03 | 0.15 | 0.15 | 88 | 1018.8 |
| 20260831090615 | 74 | 111 | 13.9 | 24.3 | 0.02 | 0.15 | 0.15 | 87 | 1018.5 |
| 20260831090115 | 75 | 92 | 7.0 | 24.3 | 0.00 | 0.13 | 0.15 | 86 | 1018.7 |
| 20260831085615 | 76 | 133 | 8.7 | 18.2 | 0.00 | 0.13 | 0.13 | 87 | 1018.7 |
| 20260831085115 | 76 | 123 | 8.7 | 13.9 | 0.00 | 0.13 | 0.13 | 88 | 1018.2 |
| 20260831084615 | 76 | 92 | 3.5 | 13.0 | 0.00 | 0.13 | 0.13 | 88 | 1018.1 |
| 20260831084115 | 76 | 116 | 8.7 | 13.0 | 0.02 | 0.13 | 0.13 | 88 | 1018.0 |
| 20260831083615 | 76 | 74 | 0.0 | 12.2 | 0.06 | 0.13 | 0.13 | 89 | 1018.1 |
| 20260831083115 | 76 | 77 | 5.2 | 12.2 | 0.06 | 0.13 | 0.13 | 89 | 1018.3 |
| 20260831082615 | 75 | 49 | 7.0 | 13.0 | 0.08 | 0.13 | 0.13 | 89 | 1018.2 |
| 20260831082116 | 75 | 72 | 5.2 | 13.0 | 0.09 | 0.13 | 0.13 | 89 | 1018.2 |
| 20260831081846 | 75 | 103 | 4.3 | 12.2 | 0.09 | 0.13 | 0.13 | 90 | 1018.3 |
| 20260831081117 | 74 | 88 | 4.3 | 13.0 | 0.09 | 0.13 | 0.13 | 90 | 1018.4 |
| 20260831080846 | 74 | 91 | 3.5 | 13.0 | 0.09 | 0.13 | 0.13 | 90 | 1018.4 |
| 20260831080115 | 74 | 104 | 0.9 | 12.2 | 0.09 | 0.13 | 0.13 | 90 | 1018.3 |
| 20260831075615 | 74 | 91 | 7.0 | 13.0 | 0.09 | 0.13 | 0.13 | 89 | 1018.4 |
| 20260831075116 | 74 | 99 | 7.0 | 17.4 | 0.09 | 0.13 | 0.13 | 89 | 1018.6 |
| 20260831074615 | 74 | 126 | 7.0 | 22.6 | 0.09 | 0.12 | 0.12 | 89 | 1018.4 |
| 20260831074115 | 75 | 67 | 4.3 | 22.6 | 0.07 | 0.11 | 0.11 | 87 | 1018.7 |
| 20260831073616 | 76 | 90 | 3.5 | 14.8 | 0.03 | 0.06 | 0.06 | 87 | 1018.2 |
| 20260831073115 | 77 | 114 | 7.8 | 17.4 | 0.03 | 0.06 | 0.06 | 86 | 1018.4 |
| 20260831072616 | 78 | 143 | 12.2 | 17.4 | 0.01 | 0.04 | 0.04 | 84 | 1018.4 |
| 20260831072347 | 78 | 75 | 8.7 | 14.8 | 0.00 | 0.03 | 0.03 | 83 | 1018.0 |
| 20260831071615 | 78 | 141 | 5.2 | 12.2 | 0.00 | 0.03 | 0.03 | 83 | 1018.2 |
| 20260831071115 | 78 | 108 | 5.2 | 14.8 | 0.00 | 0.03 | 0.03 | 83 | 1018.1 |
| 20260831070847 | 78 | 92 | 3.5 | 14.8 | 0.00 | 0.03 | 0.03 | 82 | 1018.3 |
| 20260831070347 | 78 | 96 | 7.0 | 14.8 | 0.00 | 0.03 | 0.03 | 82 | 1018.2 |
| 20260831065615 | 78 | 79 | 7.8 | 16.5 | 0.00 | 0.03 | 0.03 | 82 | 1017.9 |
| 20260831065115 | 78 | 90 | 7.8 | 18.2 | 0.00 | 0.03 | 0.03 | 82 | 1017.9 |
| 20260831064846 | 78 | 66 | 7.0 | 18.2 | 0.00 | 0.03 | 0.03 | 82 | 1018.0 |